Regional Weather Roundup
Issued by NWS Sterling, VA

Home | Current Version | Previous Version | Text Only | Print | Product List | Glossary On
Versions: 1 2 3 4 5 6 7 8 9 10 11 12 13 14 15 16 17 18 19 20 21 22 23 24 25 26 27 28 29 30 31 32 33 34 35 36 37 38 39 40 41 42 43 44 45 46 47 48 49 50
000
ASUS41 KLWX 312310
RWRLWX

REGIONAL WEATHER ROUNDUP
NATIONAL WEATHER SERVICE BALTIMORE MD/WASHINGTON DC
700 PM EDT FRI JUL 31 2015

Note: "FAIR" indicates few or no clouds below 12,000 feet
with no significant weather and/or obstructions to visibility.
 TC=TEMPERATURE CELSIUS

 * =Non NWS site. Station does not report precipitation (e.g. rain,
    snow, etc.), thunder, or fog.

DCZ001-MDZ009-015-VAZ040>042-051-053>054-010000-
WASHINGTON METRO

CITY           SKY/WX    TMP DP  RH WIND       PRES   REMARKS
WASHINGTON NAT MOSUNNY   90  60  36 N8        29.86F
DULLES         MOSUNNY   85  58  39 W6        29.87S
ANDREWS AFB    SUNNY     87  59  39 NW7       29.85F
FT BELVOIR     SUNNY     87  62  42 W8        29.85F
COLLEGE PARK*  SUNNY     86  54  32 W6        29.85S
LEESBURG*      SUNNY     88  63  42 SW3       29.88S
MANASSAS*      SUNNY     86  57  37 W5        29.87F
GAITHERSBURG*  SUNNY     82  61  47 W5        29.91S

$$

MDZ006>007-011-014-010000-
BALTIMORE METRO

CITY           SKY/WX    TMP DP  RH WIND       PRES   REMARKS
BWI AIRPORT    MOSUNNY   87  59  38 NW7       29.84F
MD SCIENCE CTR   N/A     87  56  34 MISG      29.84F
MARTIN STATE   SUNNY     88  61  40 NW9       29.85F
ANNAPOLIS      SUNNY     86  60  41 NW6       29.84F
FORT MEADE*    SUNNY     77  63  61 CALM      29.88S

$$

MDZ012-015-019>023-010000-
MARYLAND EASTERN SHORE

CITY           SKY/WX    TMP DP  RH WIND       PRES   REMARKS
OCEAN CITY     SUNNY     82  61  48 SW5       29.85S
SALISBURY      SUNNY     85  62  46 NW7       29.85S
BAY BRIDGE AP*   N/A     86  55  35 CALM      29.85S
CAMBRIDGE*     SUNNY     84  61  45 CALM      29.84F
EASTON*        SUNNY     86  63  45 CALM      29.88F

$$

MDZ017>025-010000-
SOUTHERN MARYLAND

CITY           SKY/WX    TMP DP  RH WIND       PRES   REMARKS
PATUXENT RIVER MOSUNNY   84  63  49 W10       29.84F
ST INIGOES     SUNNY     84  63  49 W9        29.85S
LEONARDTOWN*   SUNNY     84  61  45 W3        29.87F

$$

MDZ003>005-010000-
NORTH CENTRAL MARYLAND

CITY           SKY/WX    TMP DP  RH WIND       PRES   REMARKS
FREDERICK*     SUNNY     88  64  45 W5        29.88F
HAGERSTOWN APT SUNNY     87  55  33 W7        29.87S
WESTMINSTER*   SUNNY     84  61  45 SW5       29.88S

$$

MDZ501>502-010000-
WESTERN MARYLAND

CITY           SKY/WX    TMP DP  RH WIND       PRES   REMARKS
OAKLAND*       SUNNY     72  66  83 SW5       30.02S
CUMBERLAND*    SUNNY     86  55  35 SW6       29.93S

$$

VAZ025>031-010000-
SHENANDOAH VALLEY

CITY           SKY/WX    TMP DP  RH WIND       PRES   REMARKS
WINCHESTER*    SUNNY     88  54  31 W8        29.89S
FRONT ROYAL*   FAIR      82  63  51 CALM      29.88F
LURAY*         FAIR      88  59  37 W6        29.91S
NEW MARKET*    FAIR      78  67  68 CALM      29.90S
STAUNTON*      PTSUNNY   87  57  36 NW5       29.94F
WAYNESBORO*    FAIR      81  60  48 CALM      29.95S

$$

WVZ021-048>050-054>055-010000-
EASTERN WEST VIRGINIA PANHANDLE

CITY           SKY/WX    TMP DP  RH WIND       PRES   REMARKS
MARTINSBURG    SUNNY     85  56  37 W9        29.88S
PETERSBURG*    SUNNY    N/A N/A N/A W5        29.93S

$$

VAZ036>039-050-010000-
CENTRAL FOOTHILLS

CITY           SKY/WX    TMP DP  RH WIND       PRES   REMARKS
CHARLOTTESVILL SUNNY     84  60  44 CALM      29.89F
CULPEPER*      SUNNY     84  62  46 CALM      29.88F
ORANGE*        SUNNY     86  63  45 CALM      29.90F
GORDONSVILLE*  FAIR      84  63  48 CALM      29.89S
WARRENTON*     FAIR      87  66  49 CALM      29.88S

$$

VAZ055>057-010000-
NORTH AND CENTRAL PIEDMONT

CITY           SKY/WX    TMP DP  RH WIND       PRES   REMARKS
FREDERICKSBRG* SUNNY     88  60  38 W6        29.86F
STAFFORD*      SUNNY     84  64  50 CALM      29.91F

$$

NCZ024-NYZ072-PAZ021-071-VAZ022-071-010000-
OTHER REGIONAL OBSERVATIONS

CITY           SKY/WX    TMP DP  RH WIND       PRES   REMARKS
NEW YORK CITY  SUNNY     86  50  28 CALM      29.82F
PHILADELPHIA   MOSUNNY   89  54  30 NW12      29.83S
PITTSBURGH     MOSUNNY   83  57  41 W9        29.90F
ROANOKE        MOSUNNY   85  54  34 N13       29.96F
RICHMOND       MOSUNNY   87  57  35 N9        29.87F
RALEIGH        MOSUNNY   87  61  41 N7        29.91R

$$

ANZ530>537-010000-
MARINE OBSERVATIONS

STATION/POSITION TIME  TEMP    WIND        PRES
                       AIR SEA DIR/SP/G
                 (UTC) (F)     (DEG/KT/KT) (MB)
THOMAS PT LIGHT  2300   86 82  310/  8/ 10 1011.0F
BALT KEY BRIDGE  2200   86     290/  9/ 12 1010.7F
COVE POINT       2200   84     170/  4/  5 1011.7F
LEWISETTA        2200   86 83  310/  7/  8 1010.9F
SOLOMONS ISLAND  2200      84                N/A
PINEY POINT      2200          300/  9/ 10   N/A

$$




USA.gov is the U.S. government's official web portal to all federal, state and local government web resources and services.